User: anonymous   Login
Location: Newark
(50.5930°N, 3.6720°W)
Time: 03:04:40
(UTC+00:00)
Language:

X-37B - Orbit

View from above orbital plane
View from above orbital plane
View from above satellite
View from above satellite

Ground track
Ground track

The orbit data is extracted from the following two-line orbital elements,

1 45606U 20029A   20289.72133416 0.00000000  00000-0  00000-0 0    05
2 45606  45.0250 176.0292 0007556 205.3868 154.6128 15.60249163    05
Epoch (UTC): 15 October 2020 17:18:43
Eccentricity: 0.0007556
inclination: 45.0250°
perigee height: 382 km
apogee height: 392 km
right ascension of ascending node: 176.0292°
argument of perigee: 205.3868°
revolutions per day: 15.60249163
mean anomaly at epoch: 154.6128°
orbit number at epoch: 0

The dashed part of the orbit path shows where the satellite is in the earth's shadow,  

DLR